Date,TemperatureHighF,TemperatureAvgF,TemperatureLowF,DewpointHighF,DewpointAvgF,DewpointLowF,HumidityHigh,HumidityAvg,HumidityLow,PressureMaxIn,PressureMinIn,WindSpeedMaxMPH,WindSpeedAvgMPH,GustSpeedMaxMPH,PrecipitationSumIn
2013-3-1,16.8,10.9,7.2,10.4,6.9,2.8,89,84,72,30.06,29.54,5,1,9,0.00
2013-3-2,20.3,11.8,6.5,14.8,8.8,4.2,92,88,79,30.21,30.06,5,1,6,0.00
2013-3-3,27.2,15.5,6.7,18.7,11.5,4.4,92,84,70,30.46,30.21,5,1,8,0.00
2013-3-4,32.4,21.3,10.6,22.6,14.9,7.2,89,77,61,30.51,30.33,5,0,8,0.00
2013-3-5,35.7,26.6,21.2,20.5,15.8,12.6,70,63,52,30.32,29.97,5,0,8,0.00
2013-3-6,23.2,17.3,11.3,13.2,9.1,4.7,77,70,62,29.97,29.90,5,1,7,0.00
2013-3-7,38.3,27.7,15.4,27.6,18.6,9.4,81,69,56,29.90,29.47,12,5,23,0.00
2013-3-8,46.0,37.6,30.2,30.0,25.2,19.9,69,61,52,29.66,29.51,9,5,19,0.00
2013-3-9,39.4,30.4,18.9,29.4,24.1,15.1,93,78,66,30.04,29.67,8,3,12,0.00
2013-3-10,28.5,23.4,18.0,26.9,20.3,13.6,96,88,74,30.32,30.05,8,2,13,0.00
2013-3-11,25.1,16.5,11.2,18.2,12.3,8.2,92,84,72,30.60,30.33,5,2,8,0.00
2013-3-12,24.6,15.4,8.7,10.4,6.0,-1.7,79,67,50,30.62,30.36,6,1,7,0.00
2013-3-13,15.2,7.9,-2.1,2.9,-4.6,-14.0,65,56,47,30.38,30.19,16,8,35,0.00
2013-3-14,17.7,5.6,-3.9,0.3,-8.2,-15.5,58,53,44,30.28,30.13,15,8,31,0.00
2013-3-15,23.6,9.2,-0.4,1.5,-5.8,-11.3,60,51,36,30.22,29.93,12,6,25,0.00
2013-3-16,30.6,14.5,3.4,12.7,0.2,-8.2,60,53,44,30.23,30.06,9,4,15,0.00
2013-3-17,17.9,10.7,0.9,4.9,-0.0,-6.9,73,61,51,30.36,30.20,7,1,10,0.00
2013-3-18,20.1,9.5,1.4,6.7,0.2,-5.0,77,66,53,30.20,29.97,6,2,10,0.00
2013-3-19,15.3,8.7,4.1,3.3,-2.1,-6.5,69,61,50,30.20,30.09,6,1,12,0.00
2013-3-20,15.8,3.7,-7.2,4.0,-5.6,-15.0,74,65,52,30.10,29.89,6,3,10,0.00
2013-3-21,22.9,11.1,2.2,14.2,5.0,-2.0,86,77,58,30.16,30.03,8,4,13,0.00
2013-3-22,31.0,22.3,14.6,16.7,9.8,4.0,63,58,51,30.06,29.73,9,6,16,0.00
2013-3-23,26.3,4.6,-3.0,17.5,-0.2,-7.3,92,81,65,30.13,29.76,9,2,18,0.00
2013-3-24,8.5,3.1,-3.8,3.0,-2.4,-9.4,86,78,68,30.09,29.83,6,1,8,0.00
2013-3-25,8.5,4.9,1.8,4.9,1.4,-2.7,87,85,80,29.83,29.69,13,3,21,0.00
2013-3-26,4.3,-0.6,-5.0,-2.6,-6.5,-11.5,85,76,58,30.25,29.84,10,6,22,0.00
2013-3-27,17.1,0.3,-11.1,2.9,-8.2,-17.0,79,68,51,30.33,30.14,7,2,11,0.00
2013-3-28,35.8,18.5,5.1,18.0,6.5,-4.8,69,60,45,30.16,29.93,7,2,10,0.00
2013-3-29,47.9,32.9,23.2,25.3,18.7,12.5,65,56,40,29.95,29.81,7,3,11,0.00
2013-3-30,39.8,28.2,16.5,24.0,18.1,11.0,82,66,52,30.22,29.94,8,2,12,0.00
2013-3-31,38.6,32.6,27.2,31.3,25.0,19.1,92,74,58,30.29,30.19,6,2,8,0.00